Location: Peebles
(55.6412°N, 3.1714°W)
Time: 07:13:47
(UTC+00:00)

Vanguard 3 - Visible Passes

Search period start: 04 March 2024 00:00
Search period end: 14 March 2024 00:00
Orbit: 508 x 3239 km, 33.4° (Epoch: 03 March)

Date Brightness Start Highest point End Pass type
(mag) Time Alt. Az. Time Alt. Az. Time Alt. Az.
04 Mar 10.6 19:57:04 10° SW 20:12:04 34° S 20:21:47 23° SE visible
04 Mar 10.5 22:09:33 10° WSW 22:25:04 32° SSW 22:26:03 32° SSW visible
05 Mar 11.1 00:25:41 10° WSW 00:30:20 15° WSW 00:30:20 15° WSW visible
05 Mar 10.7 18:40:13 10° SSW 18:53:34 30° SSE 19:08:46 10° ESE visible
05 Mar 10.5 20:51:02 10° WSW 21:06:26 35° S 21:13:02 29° SSE visible
05 Mar 10.7 23:04:56 10° WSW 23:17:18 26° SW 23:17:18 26° SW visible
06 Mar 10.6 19:33:27 10° SW 19:47:45 34° S 20:00:00 18° SE visible
06 Mar 10.5 21:45:39 10° WSW 22:00:44 31° SSW 22:04:16 30° S visible
07 Mar 11.1 00:01:38 10° WSW 00:08:32 17° SW 00:08:32 17° SW visible
07 Mar 10.7 18:16:47 10° SW 18:29:21 30° SSE 18:44:38 10° ESE visible
07 Mar 10.6 20:27:23 10° WSW 20:42:06 34° S 20:51:13 24° SSE visible
07 Mar 10.7 22:41:02 10° WSW 22:54:45 25° SSW 22:55:30 25° SSW visible
08 Mar 10.6 19:10:01 10° SW 19:23:30 34° S 19:38:11 13° ESE visible
08 Mar 10.6 21:21:57 10° WSW 21:36:24 31° SSW 21:42:27 26° S visible
08 Mar 11.0 23:37:49 10° WSW 23:46:43 17° SW 23:46:43 17° SW visible
09 Mar 10.7 20:03:55 10° WSW 20:17:48 33° S 20:29:24 18° SE visible
09 Mar 10.8 22:17:19 10° WSW 22:30:26 24° SSW 22:33:41 23° SSW visible
10 Mar 10.7 18:46:46 10° SW 18:59:19 33° S 19:15:04 10° ESE visible
10 Mar 10.8 20:58:27 10° WSW 21:12:05 29° SSW 21:20:39 21° SSE visible
10 Mar 11.1 23:14:18 10° WSW 23:24:05 17° SW 23:24:56 16° SW visible
11 Mar 10.7 19:40:39 10° WSW 19:53:34 32° S 20:07:39 13° SE visible
11 Mar 10.9 21:53:50 10° WSW 22:06:07 23° SSW 22:11:55 20° S visible
12 Mar 10.7 18:23:42 10° SW 18:35:14 31° S 18:50:24 10° ESE visible
12 Mar 10.8 20:35:10 10° WSW 20:47:49 28° SSW 20:58:57 16° SSE visible
12 Mar 11.1 22:51:08 10° WSW 22:59:49 15° SW 23:03:14 14° SSW visible
13 Mar 10.7 19:17:33 10° WSW 19:29:26 30° S 19:44:32 10° SE visible
13 Mar 11.0 21:30:37 10° WSW 21:41:52 21° SSW 21:50:17 16° S visible
